Find Local Weather

World > North America > United States > Montana

Columbia Falls, Montana Regional Weather

Lat: 48.37N, Lon: 114.18W
Wx Zone: MTZ003
Feedback
Expires:201806182200;;745286
ASUS45 KTFX 182110
RWRMT 
MONTANA REGIONAL WEATHER ROUNDUP
NATIONAL WEATHER SERVICE GREAT FALLS MT
300 PM MDT MON JUN 18 2018

NOTE: "FAIR" INDICATES FEW OR NO CLOUDS BELOW 12000 FEET WITH NO
SIGNIFICANT WEATHER AND/OR OBSTRUCTIONS TO VISIBILITY.


MTZ001>007-043-182200-
WEST OF THE DIVIDE
  
CITY           SKY/WX    TMP DP  RH WIND       PRES   REMARKS
KALISPELL      CLOUDY    65  53  65 N7        30.03S                  
MISSOULA       LGT RAIN  59  54  83 NW9       29.99S                  
BUTTE          LGT RAIN  55  47  74 SW3       30.04R                  
MULLAN PASS    LGT RAIN  48  45  89 CALM      30.09R FOG              
DEER LODGE       N/A     55  48  76 N3        30.03R                  
HAMILTON         N/A     57  54  88 N6        29.99S                  
LIBBY            N/A     61  57  88 CALM      30.06R                  
RONAN            N/A     61  52  72 N16G25    30.02R                  
$$


SKY/WX - Weather  TMP - Temperature  DP - Dewpoint  RH - Relative Humidity
WIND - Wind Direction/Speed PRES - Barometric Pressure